Satellite: ISS
Catalog number: 25544
Epoch time:      08276.34121725
Element set:     367
Inclination:      051.6426 deg
RA of node:       186.9111 deg
Eccentricity:    0.0006256
Arg of perigee:   170.8612 deg
Mean anomaly:     290.5125 deg
Mean motion:   15.72371737 rev/day
Decay rate:     1.2216e-04 rev/day^2
Epoch rev:           56539
Checksum:              293

Satellite: CO-58
Catalog number: 28895
Epoch time:      08276.67313571
Element set:     134
Inclination:      098.0830 deg
RA of node:       168.0657 deg
Eccentricity:    0.0019025
Arg of perigee:   075.4056 deg
Mean anomaly:     284.9267 deg
Mean motion:   14.59700312 rev/day
Decay rate:       1.10e-06 rev/day^2
Epoch rev:           15616
Checksum:              315

Satellite: FALCON
Catalog number: 30776
Epoch time:      08275.92279775
Element set:    0414
Inclination:      035.4342 deg
RA of node:       226.1343 deg
Eccentricity:    0.0001013
Arg of perigee:   256.7791 deg
Mean anomaly:     103.2821 deg
Mean motion:   15.03061376 rev/day
Decay rate:       2.55e-06 rev/day^2
Epoch rev:           08621
Checksum:              273

Satellite: MAST
Catalog number: 31126
Epoch time:      08275.19089212
Element set:    0428
Inclination:      098.0303 deg
RA of node:       335.3293 deg
Eccentricity:    0.0094703
Arg of perigee:   004.1012 deg
Mean anomaly:     356.0942 deg
Mean motion:   14.53447514 rev/day
Decay rate:        2.5e-07 rev/day^2
Epoch rev:           07741
Checksum:              266

Satellite: CAPE1
Catalog number: 31130
Epoch time:      08276.41938177
Element set:     419
Inclination:      098.0303 deg
RA of node:       335.2723 deg
Eccentricity:    0.0103052
Arg of perigee:   004.0905 deg
Mean anomaly:     356.1118 deg
Mean motion:   14.51994414 rev/day
Decay rate:       1.64e-06 rev/day^2
Epoch rev:            7728
Checksum:              274

Satellite: COMPASS
Catalog number: 32787
Epoch time:      08275.43014766
Element set:    0165
Inclination:      097.9785 deg
RA of node:       334.9597 deg
Eccentricity:    0.0016302
Arg of perigee:   149.1971 deg
Mean anomaly:     211.0211 deg
Mean motion:   14.81468036 rev/day
Decay rate:       2.95e-06 rev/day^2
Epoch rev:           02313
Checksum:              304

Satellite: AAUSAT2
Catalog number: 32788
Epoch time:      08275.89138636
Element set:    0172
Inclination:      097.9789 deg
RA of node:       335.4384 deg
Eccentricity:    0.0016259
Arg of perigee:   148.6308 deg
Mean anomaly:     211.5851 deg
Mean motion:   14.81579252 rev/day
Decay rate:       2.50e-06 rev/day^2
Epoch rev:           02320
Checksum:              328

Satellite: DO-64
Catalog number: 32789
Epoch time:      08275.90359771
Element set:    0192
Inclination:      097.9811 deg
RA of node:       335.4892 deg
Eccentricity:    0.0016355
Arg of perigee:   147.4264 deg
Mean anomaly:     212.7960 deg
Mean motion:   14.81483841 rev/day
Decay rate:       2.95e-06 rev/day^2
Epoch rev:           02320
Checksum:              333

Satellite: CO-66
Catalog number: 32791
Epoch time:      08275.37759082
Element set:    0159
Inclination:      097.9821 deg
RA of node:       334.9278 deg
Eccentricity:    0.0016684
Arg of perigee:   147.2655 deg
Mean anomaly:     212.9596 deg
Mean motion:   14.81319337 rev/day
Decay rate:        3.8e-07 rev/day^2
Epoch rev:           02309
Checksum:              349

Satellite: RS-30
Catalog number: 32953
Epoch time:      08276.78348605
Element set:     123
Inclination:      082.4990 deg
RA of node:       056.6670 deg
Eccentricity:    0.0019267
Arg of perigee:   023.2329 deg
Mean anomaly:     336.9616 deg
Mean motion:   12.42997780 rev/day
Decay rate:        1.0e-07 rev/day^2
Epoch rev:            1641
Checksum:              310

/EX




_______________________________________________
Via the Keps mailing list courtesy of AMSAT-NA
http://amsat.org/mailman/listinfo/keps

--- ViaMAIL!/WC v1.60d
 * Origin: Chowdanet (401-724-4410) telnet://chowdanet.com  (1:323/120)